798  
SXUS55 KTWC 230415  
OSOTWC  
 
WEATHER ROUNDUP FOR SOUTHEAST ARIZONA  
NATIONAL WEATHER SERVICE TUCSON AZ  
915 PM MST THU FEB 22 2018  
 
AZZ504>506-514-230515-  
LOCATION SKY/WX TMP DP RH WIND PRES REMARKS  
TUCSON CLEAR 51 22 31 CALM 30.16S  
DAVIS-MONTHAN CLEAR 44 17 34 CALM 30.14S  
CHILDRENS PARK N/A N/A N/A 30 N2 PIMA CO DEQ  
ALVERNON/22ND N/A 51 N/A N/A NW1 PIMA CO DEQ  
CHERRY/GLENN N/A 50 N/A N/A NW2 PIMA CO DEQ  
TANGERINE N/A 45 N/A N/A NE3 PIMA CO DEQ  
CONTL RANCH N/A 50 23 35 N2 PIMA CO DEQ  
GRANT/1ST N/A 51 19 28 NW3 PIMA CO DEQ  
CRAYCROFT/22ND N/A 51 21 30 NW4 PIMA CO DEQ  
GOLFLINKS/KOLB N/A 53 18 25 NW2 PIMA CO DEQ  
AJO/12TH N/A 52 22 30 NW3 PIMA CO DEQ  
FAIRGROUNDS N/A 48 N/A N/A NW1 PIMA CO DEQ  
SAGUARO N/A 44 27 51 CALM *SABINO CYN  
SAN CARLOS N/A 45 17 33 CALM *SAN CARLOS  
GREEN VALLEY N/A 48 24 38 SW1 PIMA CO DEQ  
HORSE CAMP CYN N/A 42 15 33 NW6G10 *ARAVAIPA CYN  
RINCON MTNS N/A 23 12 63 SW2 *NR MANNING CAMP  

 
 
AZZ509>511-230515-  
LOCATION SKY/WX TMP DP RH WIND PRES REMARKS  
SAFFORD CLEAR 41 23 48 N5 30.12S  
STRAY HORSE N/A 26 6 43 W6G14 *  
TRAIL CABIN N/A 28 12 52 SW2 *N OF GRANVILLE  
BLACK HILLS NOT AVBL  
DRY LAKE N/A 24 9 52 W2 *NATANES MTNS  
NOON CREEK N/A 35 17 47 SW5 *PINALENO MTNS  
COLUMBINE N/A 17 16 96 CALM *PINALENO MTNS  
GUTHRIE N/A 34 10 37 W4G10 *SW OF GUTHRIE  

 
 
AZZ502-503-513-230515-  
LOCATION SKY/WX TMP DP RH WIND PRES REMARKS  
NOGALES CLEAR 40 26 57 CALM 30.16R  
SELLS N/A 47 23 38 SW3 *  
SASABE N/A 39 28 64 S3 *ALTAR VLY  
HOPKINS N/A 29 14 53 W8G11 *SANTA RITA MTNS  
CARR CYN N/A 35 22 58 SW3 *W OF HEREFORD  

 
 
AZZ507-508-512-230515-  
LOCATION SKY/WX TMP DP RH WIND PRES REMARKS  
SIERRA VISTA CLEAR 43 22 42 W9 30.16R  
DOUGLAS CLEAR 45 21 38 W3 30.14R  
EMPIRE MTNS NOT AVBL  
MULESHOE RANCH N/A 40 19 42 CALM *PRESERVE  
HEADQUARTERS N/A 32 24 71 E3 *CHIRICAHUA MTNS  

 
   
............................NOTES..........................
 
 
THIS IS AN AUTOMATED COLLECTIVE WITH MINIMAL QUALITY CONTROL.  
PIMA CO DEQ SITES HAVE NONSTANDARD WIND SENSOR HEIGHTS.  
PIMA CO DEQ SITES DO NOT REPORT WIND GUSTS.  
* INDICATES WIND SENSORS LOCATED AT 20 FEET INSTEAD OF 33 FEET.   
.............................KEY...........................
 
 
SKY/WX - SKY CONDITION/WEATHER  
TMP - TEMPERATURE IN FAHRENHEIT  
DP - DEWPOINT IN FAHRENHEIT  
RH - RELATIVE HUMIDITY IN PERCENT  
WIND - DIRECTION AND SPEED IN MILES PER HOUR (MPH)  
VRB - VARIABLE WIND DIRECTION  
PRES - MEAN SEA LEVEL PRESSURE IN INCHES OF MERCURY  
F - FALLING PRESSURE R - RISING PRESSURE  
S - STEADY PRESSURE  
VSB - VISIBILITY IN MILES  
HX - HEAT INDEX IN FAHRENHEIT  
WCI - WIND CHILL INDEX IN FAHRENHEIT  
N/A - NOT AVAILABLE  
AFB - AIR FORCE BASE  
DAVIS-MONTHAN IS DAVIS-MONTHAN AIR FORCE BASE  
CYN - CANYON  
MTNS - MOUNTAINS  
NCA - NATIONAL CONSERVATION AREA  
NR - NEAR  
VLY - VALLEY  
CONTL - CONTINENTAL  
PIMA CO DEQ - PIMA COUNTY DEPT OF ENVIRONMENTAL QUALITY  
 
CLICK HERE TO GO TO PREVIOUS BULLETINS.

The Nexlab AZ Page Main Text Page